This is the latest recevied weather packets stored in our database for station/object K1ADM. If no packets are shown the sender has not sent any weather packets the latest 10 day(s).
| Time | Temp. | Humidity | Pressure | Rain* | Wind** | Luminosity | Snow |
|---|---|---|---|---|---|---|---|
| 1777287903 | 8.89° C | 68% | 1023.5 hPa | 0 mm | - | - | - |
| 1777282203 | 6.11° C | 75% | 1022.5 hPa | 0 mm | - | - | - |
| 1777281303 | 6.11° C | 75% | 1022.3 hPa | 0 mm | - | - | - |
| 1777280403 | 6.11° C | 75% | 1022.1 hPa | 0 mm | - | - | - |
| 1777278603 | 8.33° C | 66% | 1021.8 hPa | 0 mm | - | - | - |
| 1777278003 | 8.33° C | 66% | 1021.6 hPa | 0 mm | - | - | - |
| 1777276803 | 7.22° C | 68% | 1021.7 hPa | 0 mm | - | - | - |
| 1777273203 | 8.89° C | 62% | 1021.5 hPa | 0 mm | - | - | - |
| 1777272303 | 8.89° C | 62% | 1021.4 hPa | 0 mm | - | - | - |
| 1777271103 | 8.89° C | 62% | 1021.3 hPa | 0 mm | - | - | - |
| 1777270204 | 8.89° C | 63% | 1021.5 hPa | 0 mm | - | - | - |
| 1777269003 | 8.89° C | 63% | 1021.5 hPa | 0 mm | - | - | - |
| 1777268103 | 8.89° C | 63% | 1021.5 hPa | 0 mm | - | - | - |
| 1777266304 | 8.89° C | 63% | 1021.4 hPa | 0 mm | - | - | - |
| 1777265404 | 8.89° C | 62% | 1021.6 hPa | 0 mm | - | - | - |
| 1777264503 | 8.89° C | 64% | 1021.6 hPa | 0 mm | - | - | - |
| 1777263303 | 8.33° C | 65% | 1021.5 hPa | 0 mm | - | - | - |
| 1777260904 | 8.89° C | 64% | 1021.3 hPa | 0 mm | - | - | - |
| 1777257604 | 10.56° C | 61% | 1021 hPa | 0 mm | - | - | - |
| 1777257004 | 10.56° C | 60% | 1021.3 hPa | 0 mm | - | - | - |
| 1777252501 | 11.11° C | 57% | 1020.5 hPa | 0 mm | - | - | - |
| 1777250102 | 11.67° C | 55% | 1020.2 hPa | 0 mm | - | - | - |
| 1777249501 | 12.22° C | 53% | 1020 hPa | 0 mm | - | - | - |
| 1777248301 | 12.78° C | 52% | 1019.8 hPa | 0 mm | - | - | - |
| 1777247401 | 13.33° C | 51% | 1019.7 hPa | 0 mm | - | - | - |
* Rain latest hour (hover to see other rain measurements)
** Current wind speed in m/s (hover to see current wind gust speed)